Theta_e
315 315 316 316 317 317 316 316 316 315 315 315 315 315 313 313 314 314 313 313 314 313 311 311 311 310 311 310 310 310 310 310 310 310 310 310 310 310 310 311 311 310 310 311 310 310 308 303 299 298 297 297 296 295 295 295 294 294 294 294 293 292 292 291 291 291 291 290 290 289 289 288 288 288 287 287 286 286 286 285 285 285 285 285 284 284 283
315 315 315 315 315 316 315 315 315 315 315 315 315 315 314 314 314 313 313 314 313 312 311 311 310 310 310 310 310 310 310 310 310 310 311 310 310 310 310 309 309 308 308 307 307 308 308 307 303 299 297 297 296 296 296 295 294 294 294 293 293 292 292 292 292 291 291 290 289 289 288 288 288 287 286 286 286 285 285 285 284 284 284 284 284 283 283
315 314 314 314 314 315 314 314 314 314 314 314 314 314 314 314 314 314 313 313 313 312 311 311 310 310 311 310 310 310 310 310 311 310 309 309 308 308 307 307 307 307 307 307 306 306 307 308 304 299 298 299 298 296 296 295 295 294 294 293 293 292 292 292 292 291 290 290 289 288 288 288 287 286 286 285 285 285 284 284 284 283 283 283 283 283 282
316 315 315 314 313 312 312 313 313 314 314 313 313 313 313 314 314 314 313 314 313 312 311 311 311 311 311 311 311 310 310 309 308 307 306 305 304 304 303 303 303 304 305 305 306 306 306 305 304 302 302 301 298 297 296 296 295 294 293 293 292 292 292 292 291 290 290 289 288 288 287 287 286 286 285 285 284 284 283 283 283 282 282 282 282 281 281
315 316 316 314 313 314 314 314 313 313 313 313 313 313 313 313 313 313 314 314 312 309 308 308 308 308 309 309 309 308 306 304 302 302 302 302 302 302 302 302 302 301 302 303 304 305 305 304 304 305 304 302 299 298 297 297 296 294 293 293 292 292 292 291 291 290 289 289 288 287 287 286 285 285 284 284 284 283 283 282 282 282 281 281 281 280 280
313 314 315 314 315 316 317 317 316 313 313 313 313 313 313 312 312 311 311 309 305 303 302 302 302 302 302 304 304 301 300 300 299 299 299 300 300 300 301 301 301 300 300 300 300 301 302 303 304 305 305 302 301 300 298 296 295 293 293 292 292 291 291 290 290 289 289 288 287 286 286 285 285 284 284 283 283 282 282 282 281 281 281 280 280 280 280
312 312 313 314 315 315 316 319 315 311 311 312 311 313 312 307 303 304 304 302 300 299 299 299 298 297 298 301 301 299 298 299 298 297 297 298 298 299 300 300 300 300 300 299 298 298 298 300 301 302 302 301 300 299 298 296 294 293 293 292 291 291 290 290 289 289 288 287 286 286 285 285 284 283 283 283 282 282 281 281 281 281 280 280 280 279 279
311 312 312 313 313 313 316 315 308 303 304 304 305 311 308 298 295 299 299 298 298 297 297 297 296 295 297 301 301 299 297 297 297 297 296 296 297 298 298 299 299 299 298 297 297 296 296 297 297 298 299 299 299 298 296 295 294 293 292 291 291 290 290 289 289 288 287 287 286 285 285 284 283 283 282 282 282 281 281 280 280 280 279 279 279 278 278
312 312 311 311 311 312 311 306 300 298 298 297 299 306 303 294 293 298 297 296 296 295 295 296 295 294 296 300 300 297 295 296 297 296 296 296 296 297 297 297 298 298 297 297 296 296 296 295 294 293 294 296 297 296 294 293 292 291 291 290 290 290 289 289 288 288 287 286 285 285 284 283 283 282 282 281 281 280 280 279 279 279 278 278 278 278 277
311 310 310 310 312 311 304 297 296 297 296 295 297 303 302 295 293 296 296 295 295 294 294 295 295 294 295 296 296 295 295 296 296 296 295 295 295 295 295 296 297 297 297 297 296 296 296 295 294 293 292 293 294 294 292 291 290 290 289 289 289 289 289 288 288 287 287 286 285 284 283 283 282 282 281 281 280 280 280 279 278 278 278 277 277 277 277
306 306 307 307 309 307 299 295 296 296 295 295 299 306 304 295 293 296 295 294 294 294 294 294 294 294 294 294 294 294 295 296 296 295 294 294 294 295 295 296 296 297 297 297 297 297 296 296 295 294 293 293 292 291 290 289 289 288 288 289 289 289 289 288 288 287 286 286 285 284 283 282 282 281 281 280 279 279 279 278 278 277 277 276 276 276 276
301 302 302 303 305 302 296 295 297 295 294 298 303 308 303 294 293 296 295 293 294 294 293 293 292 293 294 293 294 295 296 296 295 294 294 294 294 294 295 296 296 297 297 296 296 296 295 296 296 295 293 293 292 290 289 288 287 288 288 288 289 288 288 288 287 286 286 285 284 284 283 282 281 281 280 279 279 278 278 278 277 276 276 276 275 275 275
299 300 299 300 302 299 293 294 296 294 295 300 302 302 299 294 294 295 293 293 293 292 292 292 292 293 294 294 294 295 295 294 293 293 293 293 293 294 294 295 295 296 296 295 295 295 296 296 296 296 294 292 292 291 289 288 289 290 289 288 288 288 287 287 286 286 285 285 284 283 282 281 281 280 279 279 278 277 277 277 276 275 275 275 274 274 274
297 298 297 296 298 298 294 293 294 295 296 296 296 296 296 295 295 294 292 292 292 291 292 291 291 292 293 293 293 294 293 292 291 291 292 292 293 293 294 294 294 294 294 294 294 294 295 295 295 295 293 291 292 291 288 289 292 292 290 288 288 287 287 286 286 285 284 284 283 282 281 281 280 279 278 278 277 277 276 275 275 274 274 273 273 273 273
293 294 293 293 295 296 295 293 292 294 294 293 294 295 295 295 294 293 291 291 291 291 291 290 290 291 291 291 291 291 290 290 290 290 291 291 292 292 292 293 293 292 293 293 293 294 294 294 294 294 291 290 291 289 288 291 293 290 288 288 287 287 286 285 285 284 283 283 282 281 281 280 279 278 277 276 276 276 275 274 274 273 272 272 272 272 272
293 292 293 294 294 294 293 292 292 294 295 294 295 296 294 293 293 292 291 290 289 290 290 289 289 289 289 289 289 288 288 288 288 288 289 290 290 290 290 290 291 291 291 292 292 292 293 292 293 294 292 289 289 289 290 293 292 289 288 288 286 286 285 284 284 283 282 282 281 280 279 279 278 277 276 275 275 274 274 274 273 272 272 271 271 271 271
293 292 293 293 292 291 290 290 292 295 296 295 294 293 292 291 291 290 290 289 288 288 289 288 288 288 288 287 287 286 286 286 286 287 287 287 288 288 288 288 289 289 290 290 291 292 292 292 293 294 292 290 287 289 292 293 291 290 289 287 286 285 284 283 282 282 281 280 280 279 279 278 277 276 275 274 274 273 273 273 272 272 271 271 271 271 271
291 291 291 291 290 289 289 289 293 297 296 293 291 290 290 290 289 289 288 287 287 288 288 287 287 286 286 285 285 285 285 284 285 285 285 285 285 286 286 286 286 287 287 288 289 289 290 290 291 292 293 291 288 290 293 292 290 290 289 287 286 285 283 282 281 280 279 279 278 278 278 277 277 276 274 274 273 273 272 272 272 272 272 271 271 271 271
290 290 290 289 289 289 288 289 292 295 293 291 290 289 288 287 287 287 286 286 286 286 286 285 285 284 283 283 283 282 282 282 282 283 283 283 283 283 283 283 283 283 284 284 285 285 285 286 288 290 291 291 290 292 293 292 290 289 288 287 285 284 283 281 280 279 278 278 277 276 276 276 276 275 274 274 273 273 272 272 272 272 272 272 272 271 271
289 289 289 288 288 289 288 288 290 292 291 288 288 287 286 286 285 284 285 284 284 283 283 283 282 282 281 281 280 280 280 280 280 281 281 281 281 281 280 280 280 280 281 281 282 282 282 282 283 285 288 290 291 292 292 291 289 287 287 286 285 283 282 281 279 278 278 277 276 275 275 275 275 274 274 274 274 273 273 273 273 273 272 272 272 272 272
289 288 288 288 288 288 288 289 290 290 288 286 286 285 284 284 283 283 283 282 281 280 280 280 280 280 279 279 278 278 278 278 278 279 279 278 278 278 278 278 278 278 279 279 279 279 279 279 280 283 286 288 289 290 291 290 288 285 285 285 283 282 281 280 278 277 277 276 276 275 274 274 274 274 274 274 274 274 274 274 274 274 273 273 273 273 272
288 288 288 288 288 288 288 289 291 290 286 284 284 284 283 283 282 281 280 279 279 278 278 278 278 278 277 277 277 276 276 277 277 277 277 276 276 276 276 276 275 276 276 277 277 277 277 277 279 281 282 282 283 284 286 287 286 285 284 283 281 281 280 279 277 277 276 275 275 275 274 274 274 273 273 273 273 274 273 273 274 274 274 273 273 273 273
288 288 288 288 289 288 288 289 290 288 284 283 283 283 282 280 279 279 278 277 277 277 277 277 277 276 275 275 275 275 275 276 276 275 275 275 274 274 274 274 274 274 274 274 274 275 275 276 278 278 278 277 278 279 281 284 285 284 283 282 280 280 279 278 277 276 275 275 274 274 274 273 273 273 272 272 273 273 273 273 273 274 274 274 273 273 273
288 288 288 289 288 288 288 287 285 283 282 282 281 280 278 278 277 276 276 275 275 275 276 275 275 274 274 274 273 274 274 274 274 274 273 273 273 273 272 272 272 272 272 272 273 274 274 275 275 274 274 275 275 276 278 281 283 283 283 281 281 280 279 278 277 276 275 275 274 273 273 273 272 272 272 272 272 273 273 273 273 274 275 274 274 274 273
288 289 288 287 287 287 285 283 281 280 280 278 277 276 276 276 276 275 274 274 274 274 274 274 273 273 272 272 273 273 273 273 272 272 272 272 272 271 271 270 270 270 271 271 271 271 271 271 272 272 272 273 274 275 277 279 281 282 282 281 281 281 280 278 276 275 275 274 273 273 273 272 272 271 271 272 272 273 273 274 274 275 275 275 275 275 274
286 285 283 281 282 282 280 280 281 280 276 274 274 274 274 274 274 274 274 273 273 273 273 272 272 272 272 272 272 271 271 271 271 271 270 270 269 269 269 269 269 269 269 269 268 268 269 269 270 271 271 272 273 274 276 278 279 281 281 281 281 281 281 279 276 275 274 274 273 273 272 272 272 271 271 272 272 273 273 274 275 275 275 275 276 275 274
280 278 279 282 284 283 280 279 279 276 273 272 272 273 273 273 273 273 272 272 272 271 271 271 271 271 271 270 270 270 270 270 269 269 268 268 268 268 267 267 267 267 267 266 266 266 267 268 268 269 270 271 272 274 275 277 279 280 281 281 281 281 281 279 277 275 274 273 273 272 272 272 271 271 271 272 272 273 273 274 275 276 276 276 276 275 275
275 274 275 279 281 280 277 274 273 271 271 272 272 272 272 272 271 271 271 270 270 270 270 270 270 270 269 269 269 268 268 268 267 267 267 266 266 266 266 266 265 265 265 265 265 265 266 267 268 269 270 271 272 274 275 277 279 280 281 281 281 281 280 279 277 275 274 273 273 272 272 271 271 271 272 272 272 273 274 274 275 275 276 276 276 276 275
272 271 271 272 273 272 271 271 270 271 271 271 271 271 271 271 270 270 270 270 270 270 270 269 269 269 268 268 267 267 266 266 266 265 265 265 265 265 264 264 264 264 264 264 264 265 266 267 269 270 271 272 272 273 275 276 278 279 280 280 280 280 280 279 277 275 274 273 272 272 272 271 271 271 272 272 273 273 274 275 275 275 275 275 275 276 276
269 269 269 269 269 269 270 270 270 270 270 270 270 270 269 269 269 269 269 269 269 269 268 268 268 267 266 266 265 265 265 264 264 264 264 264 264 263 263 263 263 263 263 264 265 266 268 269 269 269 269 270 271 272 274 276 278 279 280 280 280 280 280 279 277 275 274 273 272 272 272 271 271 271 272 272 273 274 274 275 275 275 275 275 275 275 275
267 267 268 268 268 268 268 269 269 269 269 269 269 268 268 268 268 268 268 268 267 267 267 266 266 265 265 264 264 264 263 263 263 263 263 263 263 262 262 263 263 263 264 265 266 267 268 268 268 268 268 270 271 272 273 275 276 277 279 279 279 280 280 279 277 275 274 273 272 272 271 271 271 272 272 273 273 274 274 274 274 274 274 274 274 274 275
267 269 270 269 268 267 267 267 267 268 268 268 267 267 267 267 267 266 266 266 266 265 265 264 264 264 263 263 263 262 262 262 262 262 262 262 262 262 262 263 263 264 264 265 266 266 266 267 268 268 269 269 270 270 271 273 274 275 277 278 279 279 279 279 277 275 273 272 272 271 271 271 272 272 272 273 273 274 274 274 274 274 274 274 273 274 274
268 271 271 268 266 266 266 266 266 266 266 266 266 266 266 266 265 265 265 264 264 264 263 263 262 262 262 262 262 262 262 261 261 261 261 261 262 262 262 263 263 263 264 265 265 266 266 267 267 267 267 267 268 268 270 270 272 273 274 276 278 278 278 278 277 275 273 272 272 271 271 271 272 272 272 273 273 273 273 273 273 273 273 272 272 272 273
266 267 267 265 265 265 265 265 265 265 264 264 264 264 264 264 264 263 263 263 262 262 262 262 261 261 261 261 261 261 261 261 261 261 261 262 262 262 262 263 263 264 264 265 265 265 265 265 265 265 266 266 267 268 269 270 271 272 273 275 277 277 277 276 275 274 272 272 271 271 271 271 272 272 272 272 272 272 272 272 272 271 271 270 269 270 271
264 264 264 264 264 264 263 263 263 263 263 263 263 263 263 263 262 262 262 262 261 261 261 261 261 261 261 261 261 261 261 261 261 262 262 262 262 262 263 263 263 264 264 264 264 264 264 264 265 265 265 265 265 265 267 268 270 271 273 275 276 276 275 275 274 273 272 271 271 271 271 271 271 271 271 271 271 271 271 271 270 270 269 267 267 269 271
263 263 263 263 262 262 262 262 262 262 262 262 262 262 262 261 261 261 261 261 260 260 260 260 260 261 261 261 261 261 261 262 262 262 262 262 262 262 263 263 263 263 263 263 263 264 264 264 264 263 263 263 264 265 266 268 269 270 272 274 275 274 273 273 272 272 271 271 271 270 270 271 271 271 271 270 270 270 270 269 269 268 267 266 267 269 270
262 262 261 261 261 261 261 261 261 261 261 261 261 261 260 260 260 260 260 260 260 260 260 260 260 261 261 261 262 262 262 262 263 262 262 262 262 262 262 263 263 262 262 262 263 263 262 262 262 262 262 263 264 266 267 268 269 270 272 273 273 272 272 271 271 270 270 270 270 270 270 270 270 269 269 269 269 269 268 267 267 266 266 266 267 268 267
261 261 261 261 260 260 260 260 260 260 260 259 259 260 259 259 259 259 259 259 260 260 260 261 261 261 262 262 262 262 262 262 262 262 262 262 262 262 262 262 261 261 261 261 261 261 261 261 261 262 263 264 265 266 267 268 269 270 271 272 271 271 270 270 269 269 269 269 269 269 269 269 268 268 268 268 267 267 266 266 265 265 265 265 265 265 265
260 260 260 260 260 259 259 260 259 259 259 259 259 259 259 259 259 259 259 260 260 260 261 262 262 262 263 262 262 262 262 262 262 261 261 261 261 261 261 261 261 261 261 260 260 260 260 261 262 263 264 265 266 266 267 268 269 270 270 270 269 269 269 268 268 268 268 268 268 268 268 267 267 267 266 266 265 265 265 264 264 264 264 264 264 264 264
260 259 259 259 259 259 259 259 259 259 259 258 258 258 258 259 259 259 260 261 261 262 262 262 262 262 262 262 262 262 262 261 261 260 260 261 260 260 260 260 260 260 260 260 260 260 261 262 262 263 264 265 266 266 267 268 268 269 268 268 268 268 267 267 267 266 266 266 266 266 266 266 265 265 264 264 264 263 263 263 263 263 263 263 263 263 263
259 259 259 259 259 259 259 258 258 258 258 258 258 258 259 259 260 260 261 261 262 262 262 262 262 262 262 262 262 261 261 260 260 260 260 260 259 259 259 259 260 260 260 260 261 261 262 262 263 263 264 265 265 266 266 267 267 267 267 266 266 266 266 265 265 265 265 265 265 265 264 264 264 263 263 263 263 263 263 262 262 262 262 262 262 263 262
258 259 259 258 258 258 258 258 258 258 258 258 259 259 260 260 261 261 262 262 262 262 262 262 262 262 262 261 261 260 260 259 259 260 260 259 259 259 259 259 260 260 260 260 261 261 262 262 263 263 263 264 265 265 265 265 265 265 265 265 265 265 264 264 264 264 264 264 264 263 263 263 263 262 262 262 262 262 262 262 261 261 262 262 262 262 262
258 258 258 258 258 258 258 258 258 258 258 259 259 260 260 261 261 262 262 262 261 261 262 262 261 261 260 260 259 259 259 259 259 260 260 259 260 260 259 259 259 260 260 260 261 261 262 262 262 263 263 264 264 264 264 264 264 264 263 263 263 263 263 263 263 263 263 263 262 262 262 262 262 261 261 261 261 261 261 261 261 261 262 262 262 262 263
258 258 257 257 258 257 257 258 258 258 259 259 260 260 261 261 261 261 261 261 261 261 261 261 260 259 259 259 259 259 259 259 259 260 259 259 259 259 259 259 260 260 260 261 261 261 262 262 262 263 264 264 264 264 264 263 263 263 263 262 262 262 262 262 262 262 262 262 262 262 262 262 261 261 260 260 260 260 260 260 260 261 261 262 262 262 263
258 257 257 257 257 257 257 258 258 258 259 260 260 261 261 261 261 261 261 261 261 261 260 260 259 259 259 259 259 259 259 259 259 259 259 258 258 259 259 260 260 260 261 261 261 261 261 262 262 263 263 263 263 263 263 262 262 262 262 262 262 262 261 261 261 261 261 261 261 261 261 261 261 260 260 260 260 260 260 259 260 261 261 262 262 263 263
257 257 257 257 257 257 257 258 258 259 260 260 260 261 261 261 261 261 261 260 260 260 260 259 259 259 259 259 259 259 259 259 259 259 258 258 258 259 259 260 260 260 261 261 261 261 261 261 262 262 262 262 262 262 262 261 262 262 261 261 261 261 261 261 261 261 261 261 261 261 261 260 260 260 260 260 260 260 260 259 260 261 262 262 263 263 263
256 256 256 256 256 257 257 258 259 259 260 260 260 261 261 261 261 260 260 260 260 259 259 259 259 259 259 259 259 258 258 259 259 259 259 259 259 259 259 260 260 260 260 260 260 260 261 261 261 261 261 261 261 261 261 261 261 261 261 261 261 261 261 261 261 261 260 261 260 260 260 260 260 260 261 261 260 260 260 260 260 261 262 262 262 262 263
256 256 256 256 257 257 258 259 260 260 260 260 260 260 260 260 260 260 260 260 260 259 259 259 259 259 259 259 258 258 258 258 258 258 259 259 259 259 259 259 260 260 260 260 260 260 260 260 260 260 260 261 260 260 260 260 260 260 260 260 260 260 260 261 261 261 261 260 260 260 260 260 260 261 261 261 260 260 261 261 261 262 262 262 262 262 262
256 256 256 257 258 258 259 260 260 260 260 260 260 260 260 260 260 260 260 259 259 259 259 259 259 259 259 259 258 258 259 258 258 258 259 259 259 259 259 259 259 259 259 259 259 259 259 260 260 260 260 260 259 259 259 259 259 260 260 259 260 260 260 261 261 261 261 261 261 261 261 261 261 261 261 261 261 261 261 262 262 262 262 262 262 262 262
256 256 257 258 258 259 260 260 260 260 260 260 260 260 260 260 259 259 260 259 259 259 259 259 259 259 259 258 258 258 259 259 259 258 259 259 259 259 259 259 259 259 258 258 258 258 259 259 260 260 260 259 259 259 259 259 259 259 260 259 260 260 260 261 261 261 262 261 261 261 261 261 262 262 262 262 262 262 262 262 262 262 262 262 262 262 262
257 257 258 258 259 260 260 260 260 260 260 260 260 260 260 260 259 259 259 259 259 259 259 259 259 259 258 258 258 258 258 258 258 258 258 258 258 258 258 258 258 258 258 258 258 258 258 259 259 259 259 259 259 259 259 259 259 259 260 260 261 261 261 262 262 262 263 263 263 262 262 262 262 262 262 262 262 263 263 263 262 262 262 262 262 262 262
257 258 259 260 260 260 260 260 260 260 260 259 259 260 260 259 259 259 259 259 259 259 259 259 259 258 258 258 258 258 258 258 258 258 258 258 258 258 258 258 259 258 258 258 258 258 258 259 260 260 260 260 260 261 261 261 261 261 261 261 262 262 262 262 263 263 263 263 263 263 262 262 262 262 262 263 263 263 263 262 262 262 262 262 262 262 262
Wind_Speed
21 21 23 23 20 19 18 18 19 19 18 17 16 18 18 14 13 16 15 17 20 16 15 19 21 21 20 19 18 17 17 17 16 16 15 14 16 16 11 10 11 11 11 12 11 11 12 13 17 21 24 28 30 31 35 35 35 37 37 36 37 38 37 38 42 44 43 42 40 39 39 39 39 40 41 41 41 41 42 43 44 44 45 46 45 45 44
20 20 21 22 22 21 20 20 20 20 21 23 23 22 22 21 21 21 20 23 24 19 18 20 19 18 18 17 18 20 21 22 22 21 19 17 18 17 14 13 12 11 13 13 13 14 13 12 15 18 22 27 29 33 36 35 34 36 37 36 37 36 37 41 43 41 38 37 37 38 39 39 40 40 40 40 41 41 42 43 43 44 45 45 45 46 45
14 17 19 20 21 22 22 22 21 21 22 24 23 22 20 21 23 24 24 24 21 18 20 23 21 19 17 17 19 21 22 24 24 21 17 15 15 15 15 15 14 12 13 13 14 15 15 15 17 18 22 27 30 31 33 33 35 36 36 36 36 36 40 42 40 36 35 37 38 38 39 40 40 40 40 40 41 41 41 42 42 43 44 44 45 45 44
9 12 16 19 19 20 21 21 21 23 24 22 21 20 20 20 20 22 22 19 16 16 20 21 20 19 18 18 21 20 19 17 16 13 13 13 14 15 16 16 17 16 15 14 14 15 15 16 19 21 26 27 26 28 31 35 35 33 33 35 35 37 39 37 34 34 36 36 37 38 38 38 39 39 39 39 40 40 41 41 42 42 43 44 44 43 42
7 9 13 15 14 13 13 15 21 26 25 22 21 20 20 20 18 17 16 13 10 10 10 11 13 14 13 14 14 10 10 12 13 12 12 12 13 14 15 16 17 17 16 15 14 15 16 19 24 30 32 28 26 30 33 33 30 30 32 34 35 35 35 33 33 35 36 35 36 37 37 38 38 38 38 39 40 41 40 40 41 41 42 42 42 41 42
8 10 12 11 10 10 7 7 16 23 25 25 23 21 21 19 14 10 7 6 10 13 14 13 14 15 14 12 8 9 10 11 12 13 13 12 13 14 14 15 15 15 15 15 17 19 22 25 30 36 35 30 31 33 30 25 25 28 31 32 32 32 32 32 33 34 35 36 36 36 36 36 37 38 39 39 39 39 39 39 40 40 41 41 41 41 41
9 10 11 10 9 8 4 3 5 12 18 19 19 20 17 10 10 11 12 14 15 15 14 13 13 16 18 11 6 12 13 12 13 15 15 15 15 15 14 15 16 15 15 15 17 22 27 30 30 32 31 28 29 29 24 22 25 29 29 29 30 30 29 30 32 33 35 35 35 34 35 36 37 38 38 38 38 38 39 40 41 41 41 41 41 41 40
8 7 9 12 9 5 2 3 9 9 7 9 11 10 5 10 12 10 11 13 14 14 15 14 14 18 18 7 4 12 17 15 14 14 15 16 16 14 14 15 15 15 16 16 18 22 29 32 29 27 27 25 23 22 20 21 23 25 26 26 27 27 28 30 32 34 35 35 34 35 36 36 37 37 38 38 38 38 38 38 38 38 38 39 40 40 39
7 9 11 12 13 10 4 2 7 8 5 7 8 4 3 11 11 9 10 13 14 14 14 13 15 18 14 6 3 13 19 17 16 15 14 15 15 14 15 17 19 21 22 23 25 28 30 32 29 27 27 23 18 16 16 15 17 18 20 22 23 25 27 29 31 33 34 34 34 35 36 37 37 37 36 36 36 37 37 36 36 36 36 36 37 38 38
4 9 10 8 11 8 2 4 6 4 4 7 7 6 2 8 12 10 11 13 14 15 14 14 15 14 11 8 8 14 18 18 17 17 16 15 15 15 16 18 23 26 28 29 31 31 31 31 31 29 27 21 12 8 8 10 12 14 17 20 22 24 27 29 31 32 33 34 35 35 36 37 36 35 35 35 36 37 38 37 36 36 36 35 36 37 38
5 9 9 7 7 2 4 9 9 6 10 10 5 5 3 7 10 8 10 12 12 12 13 13 13 12 10 9 9 13 17 16 15 17 18 17 18 20 21 21 21 25 29 30 33 33 30 32 34 31 24 17 9 4 3 5 8 12 16 21 23 25 27 27 29 31 32 33 33 34 35 35 35 35 34 34 35 35 36 35 34 34 35 34 34 35 36
7 9 8 7 4 1 5 11 8 9 12 8 2 4 1 7 7 5 8 10 9 9 9 10 10 8 8 10 12 14 14 13 13 15 16 17 18 21 25 27 26 27 28 27 28 28 29 33 37 34 25 16 9 5 4 4 8 14 17 19 19 21 23 25 27 30 31 32 34 34 35 34 33 34 34 33 34 34 34 33 33 33 34 34 34 34 35
7 8 8 7 3 2 5 10 10 12 11 3 0 5 4 5 4 4 6 7 6 6 6 6 6 6 6 9 14 15 14 14 14 14 15 18 20 21 24 29 30 28 27 26 25 26 29 35 39 37 29 21 15 10 5 6 13 17 16 15 16 18 20 23 26 29 31 33 34 34 34 33 32 33 34 35 36 36 35 33 33 32 33 33 33 33 33
5 4 5 7 5 1 7 11 9 8 6 1 3 3 2 2 4 3 4 4 4 5 5 5 5 7 8 10 13 14 14 15 16 16 16 18 21 22 24 26 28 27 26 27 27 28 31 35 39 38 31 23 21 16 9 13 20 18 14 13 15 17 19 21 24 28 30 31 32 32 32 33 33 32 33 34 35 36 35 33 33 32 32 32 32 31 31
5 5 6 8 6 3 10 12 8 4 2 4 5 2 2 3 3 2 3 3 4 5 6 7 7 9 9 10 11 13 13 14 15 16 16 16 18 21 23 24 27 26 24 25 26 28 31 34 38 38 29 23 22 17 14 21 22 16 12 13 14 16 20 22 24 27 28 29 30 31 32 33 34 33 32 33 34 35 34 33 31 30 30 31 30 30 30
4 5 6 5 5 6 7 6 4 1 2 3 2 2 3 3 2 2 4 4 5 6 7 9 9 9 10 10 10 12 13 13 13 14 15 15 16 20 22 25 29 28 24 24 27 30 31 31 34 36 29 23 21 18 21 27 24 16 14 13 13 16 19 22 24 27 28 29 30 31 31 32 32 31 31 32 33 33 33 32 30 28 28 29 29 28 29
4 5 7 8 8 9 8 5 3 5 5 3 3 3 3 3 3 3 3 5 7 7 7 9 10 9 10 10 10 11 12 13 13 14 14 16 17 20 23 27 30 29 27 27 28 29 30 29 29 32 30 24 20 21 27 30 25 19 17 14 14 16 18 21 23 26 27 29 31 32 33 34 33 32 32 32 31 32 33 32 30 28 27 29 29 27 27
6 7 9 9 8 10 11 8 3 5 5 4 4 3 3 4 4 3 4 6 8 7 7 8 8 9 10 11 11 11 11 12 13 13 14 16 18 20 23 26 29 30 29 29 28 27 30 31 28 29 31 26 23 27 32 31 25 22 19 17 17 18 19 20 22 24 26 27 29 31 33 35 35 34 35 34 32 31 31 31 30 29 29 29 28 27 27
6 7 8 8 8 11 12 9 4 4 4 4 4 4 4 4 4 5 5 6 7 7 6 7 7 9 11 11 12 12 11 12 14 13 13 15 16 19 21 24 28 29 26 25 24 26 30 32 30 29 31 30 29 32 35 32 28 24 21 20 20 20 21 21 22 24 26 26 27 28 31 32 32 32 35 35 32 30 30 30 28 28 28 29 28 28 27
7 8 10 11 11 13 13 10 7 5 5 4 4 5 4 3 4 5 5 5 6 6 6 6 7 10 11 11 11 12 11 12 13 13 13 13 16 20 24 26 27 26 23 22 23 25 28 32 33 31 32 33 32 33 36 35 29 24 23 23 23 22 22 22 23 25 26 27 27 28 29 32 32 33 35 36 35 36 38 39 35 32 31 30 31 32 31
7 8 11 12 12 12 12 11 8 5 5 4 6 5 3 3 4 5 6 6 6 6 8 7 7 9 12 11 10 11 12 13 13 13 14 15 18 21 24 25 26 25 23 23 24 26 30 34 34 32 31 32 31 31 34 34 28 24 25 25 24 24 23 23 24 25 25 27 28 27 28 30 31 32 34 36 35 35 38 42 42 39 38 37 36 37 36
7 9 11 10 8 8 9 8 7 6 5 4 5 5 4 3 3 4 7 8 8 8 9 8 7 9 11 12 12 11 12 13 14 15 15 16 19 22 25 27 28 27 25 25 26 29 33 35 32 30 31 34 34 33 33 32 27 25 26 24 23 23 24 24 25 25 25 26 27 26 26 26 26 26 27 29 29 28 29 34 36 35 34 36 39 40 39
10 12 12 8 5 8 11 7 5 5 3 3 4 4 4 4 4 4 5 8 10 10 10 8 8 9 11 13 13 12 13 14 16 19 18 16 17 22 25 25 24 26 28 29 29 31 34 33 30 31 35 39 38 35 33 32 29 27 27 24 21 22 24 25 26 27 25 25 25 25 24 24 23 22 21 22 23 22 22 24 26 25 25 27 33 37 38
13 12 11 7 5 9 12 6 2 2 3 2 2 2 2 4 6 4 5 8 9 10 11 11 10 10 12 13 14 14 15 16 18 20 23 24 23 25 25 23 22 25 28 28 29 31 34 34 34 35 38 42 40 35 33 32 30 30 29 26 23 23 24 26 27 27 26 25 24 24 23 22 22 21 19 17 18 18 17 18 21 22 21 22 26 29 31
12 9 5 2 4 8 7 4 4 2 2 3 2 4 5 6 7 6 7 9 8 8 9 12 13 13 13 12 13 14 15 17 21 23 24 26 27 25 24 24 24 25 27 28 31 33 34 37 38 38 39 43 41 35 32 32 31 30 31 30 28 26 25 25 25 26 26 25 24 25 25 24 23 23 21 18 16 16 16 17 20 22 21 22 24 24 25
4 2 2 2 4 7 4 3 4 2 3 4 5 6 7 8 8 9 10 10 10 9 9 11 14 16 16 13 14 15 15 19 26 26 21 20 22 21 21 25 28 29 31 33 36 36 34 35 37 36 38 42 40 34 33 33 31 31 32 32 32 31 29 27 26 26 27 27 26 26 26 26 25 25 24 22 20 19 18 17 19 21 22 23 24 24 24
3 3 2 2 8 6 1 0 3 5 7 7 6 7 8 10 11 12 13 13 13 14 15 15 16 17 18 17 16 17 18 20 22 21 17 17 19 21 25 29 32 35 36 38 39 38 35 34 35 35 39 43 39 33 33 33 32 32 33 32 31 32 31 30 28 27 28 28 27 26 26 26 26 25 24 24 23 23 21 19 18 19 21 24 25 26 26
3 4 3 2 6 6 3 3 6 7 8 7 7 7 8 9 10 11 13 13 13 12 14 16 15 14 14 15 14 14 16 17 17 15 15 18 21 25 30 33 35 38 39 40 41 39 36 35 35 35 39 40 34 31 34 34 32 32 31 29 29 28 28 29 29 27 26 27 27 27 26 25 25 24 24 23 23 23 23 22 21 20 21 24 26 27 27
3 4 3 2 4 6 7 7 7 7 7 8 8 7 7 8 10 11 12 13 12 11 12 14 14 14 14 15 14 12 11 13 15 16 18 23 26 28 31 34 37 39 38 38 38 36 34 33 31 32 36 37 33 33 36 35 33 32 30 28 28 27 26 27 27 25 25 25 26 26 26 25 25 24 24 24 24 24 23 22 23 22 23 26 29 29 28
4 4 4 5 4 5 7 7 7 8 8 8 9 8 6 7 10 13 14 13 12 12 13 13 14 15 15 14 14 14 14 16 20 22 25 29 30 31 32 33 32 28 25 25 27 27 27 27 29 33 39 40 36 35 36 34 32 32 31 30 29 28 27 26 26 25 24 24 24 25 25 24 24 24 23 23 24 24 23 23 24 24 25 28 29 29 29
6 6 5 4 3 4 6 7 8 9 8 7 9 11 10 9 10 13 15 13 12 13 14 14 14 16 15 15 18 21 22 23 25 27 29 31 31 32 32 29 23 18 19 22 24 26 28 31 34 37 38 37 35 35 35 33 32 30 28 28 28 28 28 27 25 25 24 23 23 24 24 23 23 24 23 23 23 23 23 23 24 25 26 27 27 28 30
6 6 3 2 4 6 7 6 7 10 10 8 9 11 10 10 12 14 14 14 13 14 15 15 14 15 18 21 24 23 22 24 26 28 29 30 31 31 30 28 27 27 29 31 31 32 33 33 34 35 36 36 38 38 36 35 33 31 28 26 25 25 27 26 24 24 23 23 23 23 23 23 23 24 23 23 23 23 23 23 23 24 25 25 26 28 33
6 5 3 4 7 9 10 8 7 9 12 12 11 10 9 9 10 12 12 13 14 14 14 13 14 18 23 25 24 23 22 22 22 20 20 22 27 30 30 30 31 33 35 35 36 35 33 33 36 40 41 40 40 39 36 34 35 35 33 30 25 24 24 24 23 22 22 22 22 22 23 24 24 24 24 24 24 24 24 24 24 23 24 25 26 29 33
2 3 5 5 6 8 11 12 10 10 12 13 12 11 10 9 10 12 13 13 14 15 15 15 18 23 25 24 21 20 19 16 14 13 13 16 23 29 31 32 33 35 36 36 35 35 36 38 40 41 38 35 34 34 32 30 31 31 31 29 26 23 20 20 21 21 20 20 21 21 22 23 23 23 24 24 24 24 24 24 25 25 25 25 26 28 31
4 5 7 7 7 8 10 11 12 12 13 15 16 15 13 11 12 14 15 15 16 18 20 22 25 26 24 20 17 15 14 13 13 14 15 18 24 30 33 32 31 30 30 31 33 35 37 37 35 33 32 32 33 32 30 29 28 27 26 25 23 20 19 20 21 21 21 21 21 22 22 22 22 23 24 23 24 24 25 25 26 26 26 26 27 28 28
6 6 6 6 7 9 10 10 11 12 12 13 15 16 16 15 15 17 19 20 21 23 25 25 25 21 17 15 14 14 15 16 16 16 19 23 27 30 30 27 24 21 20 23 29 32 30 28 30 32 33 31 30 29 27 26 25 25 24 22 19 18 18 20 20 20 21 22 22 22 22 23 24 25 26 26 26 26 26 26 26 26 26 28 29 29 29
7 7 7 7 8 9 10 11 13 14 15 15 16 17 18 18 19 22 24 24 24 25 26 24 20 17 15 17 18 19 20 20 20 20 23 27 28 26 23 20 17 14 12 15 22 27 27 28 30 32 29 26 25 25 25 24 23 22 19 17 16 17 18 18 19 19 20 21 22 22 23 23 23 23 24 25 25 26 27 26 25 25 26 27 27 28 29
9 9 10 11 12 12 13 16 18 18 18 18 18 20 22 23 24 25 25 24 25 27 26 23 21 19 19 19 19 18 19 21 23 24 27 28 26 21 16 13 12 10 10 15 23 27 28 29 28 26 24 23 23 23 23 22 18 15 13 13 14 16 17 17 17 18 19 20 21 22 23 23 22 21 22 23 23 25 26 26 26 27 27 26 26 27 29
10 10 11 13 13 13 15 17 18 18 18 17 17 20 23 26 26 25 24 24 25 26 25 23 21 18 16 15 14 13 17 22 24 26 28 29 25 20 16 16 17 17 18 22 26 26 25 26 25 22 21 19 18 17 15 12 8 7 9 12 14 15 16 17 18 18 18 20 21 22 22 22 22 21 21 22 23 24 25 26 27 28 27 27 28 29 30
9 9 11 11 12 12 12 13 14 17 19 20 19 20 23 25 25 22 20 21 22 23 23 22 18 13 12 13 12 12 17 23 26 28 28 26 21 16 13 15 18 20 22 24 24 22 21 21 19 17 15 13 9 6 3 3 7 9 12 14 15 16 17 17 18 18 18 20 21 20 20 21 21 21 22 23 23 24 25 26 27 27 27 27 29 30 30
9 10 11 11 11 11 11 12 14 17 20 21 22 23 24 25 23 19 17 19 21 22 23 22 18 14 14 15 14 16 21 25 27 27 25 19 13 7 5 9 16 22 23 22 20 18 16 14 12 10 9 8 7 8 10 12 13 15 16 16 17 18 18 18 18 18 19 19 20 20 21 22 22 22 23 24 24 25 26 26 26 27 28 30 31 31 31
10 11 12 11 11 11 13 14 14 15 18 20 23 24 24 24 22 20 20 21 23 22 22 22 20 18 18 19 19 20 22 22 23 23 21 17 11 6 4 10 19 23 21 18 15 13 11 10 9 8 8 11 12 13 15 17 18 19 19 19 18 19 19 19 18 18 19 19 20 20 21 22 23 22 23 24 24 26 28 29 29 29 31 31 32 32 33
12 12 11 10 10 12 14 15 15 15 16 18 21 23 24 23 21 20 20 21 22 21 20 19 18 18 19 20 18 15 14 16 17 17 16 16 16 12 10 14 19 20 17 14 12 11 10 10 11 12 13 14 16 17 18 20 20 21 21 21 21 21 20 20 20 20 20 20 21 21 21 22 23 23 24 25 26 28 31 33 33 33 32 32 33 33 33
14 13 11 11 13 15 15 15 14 13 13 16 20 23 22 20 19 19 20 20 20 19 18 16 15 16 17 17 13 9 9 12 13 11 9 9 11 13 16 17 17 15 14 13 12 11 11 11 13 14 15 16 17 19 21 21 21 22 22 22 22 22 22 21 21 20 21 21 21 21 22 23 23 25 28 31 31 31 30 31 33 33 33 34 34 32 31
15 15 15 16 16 16 14 13 13 14 16 18 21 21 19 17 17 19 19 18 17 17 16 15 14 15 16 16 14 13 13 13 12 10 8 5 5 11 17 19 16 14 14 14 13 13 13 13 14 16 17 18 20 21 21 22 22 22 23 23 23 23 23 22 22 22 22 22 22 23 24 25 26 28 32 33 32 30 29 30 31 32 33 33 33 31 31
15 17 18 17 16 16 18 19 19 20 19 17 15 14 14 15 17 17 17 17 16 16 16 15 15 16 17 16 16 16 15 13 12 13 12 9 8 12 17 17 16 16 16 15 14 14 15 15 16 17 18 20 21 21 21 21 22 22 23 23 23 23 23 23 24 24 24 24 24 25 27 28 29 30 31 31 29 29 29 30 31 32 32 32 32 31 29
15 15 17 17 18 20 23 23 20 17 14 11 8 9 12 15 16 16 15 16 16 16 15 16 16 16 17 16 15 14 12 10 9 13 17 17 15 15 17 17 17 17 18 17 17 16 16 17 18 19 20 21 22 22 22 22 22 23 23 23 24 25 25 26 26 25 25 25 26 27 28 28 29 29 29 30 30 30 30 31 31 31 31 31 30 29 28
15 15 18 21 22 22 22 19 14 10 8 7 8 9 12 15 16 15 14 15 15 14 14 14 15 16 16 16 14 14 13 9 7 10 16 19 17 16 17 18 17 17 18 18 19 19 18 18 19 20 21 22 24 24 24 24 25 25 25 26 26 27 29 29 29 28 28 28 28 29 29 28 28 28 29 29 30 29 30 31 31 31 30 29 28 27 26
18 19 19 19 18 17 15 11 7 5 7 8 10 11 13 13 12 11 11 12 13 12 12 13 14 16 16 15 14 15 15 13 9 10 14 17 17 16 17 18 18 18 18 18 19 20 20 20 22 24 25 25 26 26 26 27 28 28 28 28 27 28 29 30 30 29 29 29 29 28 28 28 28 28 28 29 28 28 29 30 30 29 28 27 26 24 23
17 15 13 12 11 10 9 7 5 6 8 10 10 11 11 10 8 7 9 11 11 10 11 12 13 14 15 16 15 15 16 16 15 15 16 17 17 17 17 18 19 19 20 20 21 22 23 24 26 27 28 28 28 28 28 29 29 29 29 29 28 28 28 28 28 29 29 28 28 28 27 27 28 28 28 27 27 27 27 26 26 25 24 23 22 21 20
14 12 11 10 10 10 10 9 9 9 10 10 10 10 10 8 7 8 10 11 10 9 9 10 11 13 15 15 16 16 17 17 17 17 17 17 18 18 19 19 20 21 21 21 22 22 23 25 26 27 28 28 28 28 28 28 28 28 28 28 27 27 27 27 27 28 28 28 28 28 28 27 27 27 26 25 25 25 24 24 23 22 21 20 19 18 17
17 15 12 10 9 10 10 11 11 11 10 10 10 9 8 8 7 8 9 10 10 9 8 7 8 11 14 14 14 15 16 16 16 17 17 18 18 19 20 20 21 22 22 23 23 24 24 25 27 28 29 29 29 28 28 28 28 27 27 26 26 25 25 26 26 26 27 27 27 27 26 26 25 25 24 23 23 22 22 21 20 20 19 17 16 15 14
Wind_Direction
244 245 249 251 251 253 252 252 255 255 251 246 243 245 246 243 248 253 251 253 257 256 252 254 260 266 270 278 285 286 284 281 278 277 277 277 276 277 275 263 256 249 245 248 246 245 244 242 245 245 241 238 235 233 236 234 226 220 215 211 210 211 211 212 214 215 215 214 213 211 210 208 206 205 204 203 202 201 201 200 200 200 200 200 199 199 201
246 241 243 245 246 251 252 249 248 249 251 251 249 251 252 250 251 256 257 255 256 257 255 255 258 264 270 276 279 281 283 283 282 282 284 284 285 287 284 272 263 252 247 250 252 252 251 245 245 243 237 235 233 232 234 232 226 221 214 209 210 209 210 215 216 215 213 210 209 208 207 206 205 203 202 200 199 199 199 199 199 198 198 198 199 199 199
249 242 243 242 239 242 246 247 247 248 250 251 251 253 254 254 256 257 257 257 259 258 256 256 256 259 266 272 276 277 278 280 285 295 305 314 315 318 319 312 304 292 275 265 260 259 257 252 246 238 234 235 235 234 233 230 226 221 213 209 210 210 213 216 215 211 209 207 206 205 205 204 202 200 199 198 197 197 197 197 197 197 196 196 197 199 198
256 246 246 248 246 243 243 245 245 245 244 244 245 245 245 247 252 256 258 259 258 259 261 261 264 269 270 272 275 279 286 300 316 337 354 358 352 347 344 340 337 328 313 295 277 266 259 257 256 249 245 243 238 233 232 230 227 220 212 209 210 212 215 215 211 207 206 204 202 202 202 201 199 198 196 195 195 195 195 195 195 195 196 196 197 197 198
269 258 256 262 261 249 239 237 238 240 243 244 244 245 247 247 248 254 258 261 276 304 323 327 321 317 308 297 299 311 333 352 6 13 12 5 357 351 344 341 342 339 334 324 304 288 273 264 264 262 258 251 241 236 235 232 225 214 209 210 211 213 214 211 207 205 203 200 199 200 199 198 197 195 194 194 194 194 194 194 194 194 195 196 196 196 198
278 277 281 283 269 257 251 224 227 236 242 245 247 250 253 255 264 282 296 331 3 12 14 6 351 339 326 323 353 36 33 16 6 359 359 357 351 347 342 338 338 337 338 336 328 320 305 285 274 272 269 260 250 246 241 232 219 210 208 209 210 212 211 208 206 203 200 199 198 198 196 195 194 193 193 194 194 193 193 192 193 194 194 195 196 197 198
272 278 282 274 259 261 261 198 225 247 248 254 262 261 262 289 338 1 17 22 21 16 6 360 355 338 324 323 38 51 33 16 1 351 348 347 343 340 337 334 332 330 334 336 334 332 325 312 297 288 283 276 266 258 245 227 215 209 206 207 209 210 208 205 204 200 198 197 195 194 193 192 192 192 193 193 192 192 192 192 194 195 195 195 196 196 198
270 270 262 259 266 273 206 87 27 359 330 333 323 289 302 19 14 12 25 23 16 11 2 358 354 339 325 310 87 42 20 9 358 347 340 337 335 331 329 328 325 323 325 328 328 330 332 330 322 310 301 294 282 268 251 230 217 208 205 206 208 207 205 203 202 200 197 195 193 191 190 189 191 192 192 192 191 191 191 192 194 195 195 195 196 196 197
252 260 257 263 276 277 250 43 17 16 4 340 324 280 54 33 10 3 23 21 13 9 2 356 350 340 331 316 9 16 7 356 348 342 333 328 326 323 322 321 319 318 320 325 330 331 333 336 335 330 323 310 284 260 247 232 218 208 204 206 208 206 205 203 201 200 197 194 191 190 189 189 190 191 191 190 190 189 189 190 192 193 194 194 195 196 196
265 278 275 277 279 275 312 325 312 343 319 289 272 230 165 29 8 5 20 18 10 4 358 355 351 344 342 339 341 353 351 344 341 336 330 328 326 324 323 322 323 324 325 328 331 331 333 335 337 341 338 325 297 257 236 223 213 205 205 210 210 206 206 205 201 199 198 195 193 190 189 190 190 189 189 189 190 190 189 190 191 192 193 193 194 196 196
294 288 280 287 280 266 18 324 306 325 316 304 288 216 172 34 4 355 18 19 10 2 353 352 356 352 345 333 326 337 338 335 335 333 328 328 327 323 323 323 323 323 325 328 330 332 334 333 334 340 340 333 331 326 279 236 214 212 216 217 213 209 208 205 201 199 198 196 195 192 191 191 190 189 188 188 188 190 190 190 191 190 191 191 191 194 197
287 282 274 283 277 101 1 328 318 317 308 309 311 248 249 35 2 350 19 12 2 3 353 349 358 353 333 317 315 322 325 321 325 325 320 321 323 321 322 324 324 324 325 329 331 331 331 330 331 332 330 329 334 326 292 251 231 235 236 230 222 216 211 205 201 200 198 197 197 195 193 192 189 188 187 186 185 187 188 189 189 188 189 190 191 193 196
277 274 273 282 257 116 7 338 328 326 326 350 343 284 325 17 345 350 19 0 350 358 345 339 341 319 298 296 300 307 313 314 317 317 313 314 315 315 318 321 324 325 325 326 327 325 326 330 330 327 324 322 319 314 306 271 260 259 255 244 232 222 214 207 203 200 198 198 198 197 194 190 186 186 186 186 185 185 185 186 186 186 187 189 190 192 194
278 267 279 286 263 107 19 352 336 347 0 339 279 299 340 331 314 345 8 336 324 324 311 308 301 288 287 289 292 301 311 313 314 316 317 317 316 316 319 321 323 324 322 323 325 323 325 330 329 326 322 314 310 314 306 284 282 281 271 251 235 223 214 209 204 201 200 200 198 195 192 187 184 184 185 185 185 183 183 184 184 184 185 186 187 189 190
280 268 268 271 264 326 1 349 343 23 64 262 276 282 216 248 281 308 307 299 302 303 301 299 294 292 296 296 298 306 310 312 316 317 319 320 319 320 321 321 323 325 321 320 322 321 323 326 325 323 319 307 304 309 295 288 295 296 276 254 236 222 213 207 204 201 200 199 197 193 190 187 184 182 181 182 183 182 182 182 181 182 183 183 183 184 186
274 259 254 269 294 322 340 341 331 307 228 236 243 221 225 230 222 250 276 288 290 292 300 303 303 303 301 301 308 312 311 314 317 315 317 320 319 319 319 320 323 325 321 318 318 316 317 319 318 318 314 302 299 299 291 292 297 293 276 259 236 223 214 205 203 201 198 197 196 192 189 186 182 180 180 180 181 182 183 181 180 181 182 182 181 182 184
250 246 262 288 308 313 313 312 266 228 213 195 175 185 222 238 235 246 271 290 295 299 303 304 304 303 304 310 315 313 310 312 313 313 316 317 316 316 317 318 322 323 320 317 315 313 314 316 315 314 310 300 290 289 292 293 293 285 275 257 237 229 219 210 205 200 197 196 194 192 189 186 183 181 180 179 180 182 183 183 183 182 182 184 186 185 185
264 261 264 280 298 298 298 304 273 202 192 184 174 180 225 253 259 264 267 278 291 301 305 305 304 305 309 313 311 307 307 307 308 310 311 312 314 316 316 317 320 321 319 317 316 315 314 315 315 312 307 298 285 285 291 291 287 283 273 254 242 234 224 217 210 201 196 194 193 192 190 188 187 185 182 182 182 184 185 186 186 186 184 186 188 187 187
270 265 266 275 283 282 287 295 279 229 208 195 188 201 234 252 265 277 278 280 288 297 301 301 299 301 307 310 309 309 309 305 305 307 307 308 311 311 310 313 316 317 316 315 315 314 311 312 314 312 306 298 291 290 292 289 282 275 264 249 241 234 225 220 211 202 198 195 192 192 191 189 189 188 186 186 186 186 188 189 189 190 188 187 188 188 186
247 258 272 276 272 272 279 282 269 232 200 204 227 231 230 251 278 282 284 291 298 301 300 300 302 301 301 302 305 308 308 304 304 305 303 304 306 306 306 310 313 315 313 310 311 310 307 309 312 310 304 300 296 293 292 287 278 265 252 242 235 231 226 220 211 206 203 198 193 193 194 192 191 190 189 190 191 192 194 193 191 191 191 190 191 189 183
265 272 274 275 275 275 274 266 250 206 177 212 254 254 234 260 294 295 297 300 303 303 300 302 304 299 296 298 303 304 302 300 300 301 303 304 303 301 304 309 312 311 307 305 307 305 302 305 309 307 305 305 304 300 297 290 277 257 246 239 232 227 223 217 212 208 205 202 199 197 197 198 198 197 196 195 198 202 203 200 197 195 193 193 194 189 183
267 261 257 258 265 273 273 258 228 202 191 216 253 263 260 267 283 296 301 302 300 296 294 297 301 296 294 298 303 301 295 294 296 299 303 305 302 302 307 312 312 309 306 306 306 302 300 302 304 304 306 307 306 305 304 298 281 258 245 238 231 225 219 214 211 207 204 205 204 201 200 201 202 203 204 203 205 210 212 211 210 206 201 199 196 189 185
248 253 255 247 229 258 273 263 206 207 258 275 255 252 265 275 276 280 291 294 296 294 290 287 289 291 293 295 299 297 291 290 292 297 299 299 298 302 307 311 311 309 308 307 303 300 300 302 303 302 302 300 298 299 301 299 286 265 248 237 230 224 219 214 211 207 204 204 203 202 202 202 199 201 204 208 212 216 217 216 215 213 212 207 198 191 187
254 261 264 251 225 250 267 266 210 253 308 311 252 248 270 277 278 277 274 274 275 280 286 286 283 283 288 291 291 290 289 289 291 296 298 297 296 299 303 306 306 305 304 302 300 298 300 303 302 301 298 294 292 293 294 293 286 270 251 239 233 228 222 217 212 207 204 202 200 198 199 199 198 197 196 199 206 214 217 213 208 208 210 205 195 192 190
257 262 261 240 234 251 271 308 314 305 56 67 349 310 293 282 282 284 283 279 268 260 271 281 284 283 281 280 283 285 287 288 290 294 297 296 296 299 302 304 303 301 300 299 297 296 297 298 298 297 293 290 290 291 289 287 283 271 255 244 239 236 228 218 211 206 203 201 199 197 195 194 194 194 192 190 191 194 196 197 198 201 204 201 194 189 186
266 276 74 52 280 266 273 313 299 315 37 18 331 303 291 286 283 281 281 280 275 270 270 275 282 284 279 273 277 282 282 284 288 291 292 292 294 298 300 301 301 300 300 298 295 293 294 294 293 292 288 286 289 292 289 284 280 272 261 251 244 241 234 222 210 205 203 200 198 198 197 195 193 192 192 191 186 179 177 179 185 191 195 194 190 182 177
64 53 54 303 281 274 231 100 307 323 334 323 304 290 287 286 285 286 284 276 272 273 273 272 277 282 281 278 277 279 279 282 286 288 286 285 289 293 296 298 299 298 297 294 290 290 292 290 288 285 282 283 287 290 287 284 279 271 263 256 250 246 239 227 216 208 205 202 199 198 197 195 194 192 190 188 185 182 179 178 177 179 179 180 179 175 171
60 43 44 276 271 284 312 326 313 309 304 296 291 290 292 293 292 290 287 283 281 277 272 274 276 278 282 286 285 282 283 284 284 283 283 284 287 292 295 296 296 294 292 289 288 289 289 285 281 278 277 281 287 289 287 287 283 273 264 257 252 248 240 230 220 212 208 203 200 198 196 194 192 191 188 186 184 183 183 180 175 170 165 165 167 167 165
34 31 25 298 274 289 300 304 302 296 293 296 295 292 297 302 298 291 287 291 296 293 290 290 288 283 284 290 291 289 287 285 284 284 286 289 291 293 294 294 292 289 285 282 283 285 282 278 277 278 281 287 293 291 287 286 282 274 265 256 250 246 239 230 221 213 209 203 199 197 194 190 188 187 186 186 184 182 180 178 172 166 159 156 157 158 159
360 348 312 290 289 296 298 302 303 300 300 303 300 296 293 291 290 290 292 296 298 297 298 300 298 294 292 292 292 291 288 286 286 287 288 290 293 294 293 293 291 287 280 276 274 274 276 279 282 284 287 290 292 290 288 287 283 277 269 259 251 245 239 230 218 209 205 200 195 192 189 186 186 186 185 184 183 180 178 174 168 163 160 159 158 157 158
323 309 289 278 296 310 303 302 300 295 293 296 298 299 300 295 289 289 292 296 298 297 298 300 299 298 298 296 294 292 288 286 287 288 289 290 292 292 290 288 285 282 282 281 279 279 283 285 283 281 284 288 288 287 288 288 287 284 275 264 256 249 242 232 217 206 202 195 188 186 184 183 184 184 182 182 181 179 176 171 166 164 162 161 161 160 158
330 321 311 326 336 317 299 293 294 296 299 300 296 296 299 299 294 293 295 298 299 298 299 299 297 297 299 299 297 293 289 286 285 286 288 290 289 289 288 284 280 281 283 285 286 288 288 286 283 285 291 293 291 288 286 283 281 280 276 269 261 251 242 229 213 202 197 191 186 184 182 181 182 182 181 181 179 176 172 167 165 165 163 162 161 160 159
358 345 340 342 333 317 306 300 289 289 296 298 292 290 291 291 290 290 293 297 297 297 297 295 293 295 298 298 295 293 290 288 285 283 284 286 287 289 289 287 285 284 283 284 286 288 287 286 288 293 295 294 291 288 285 279 274 273 272 268 261 250 239 224 207 195 189 187 187 185 182 181 181 180 180 179 176 173 169 165 162 161 159 158 158 160 160
337 300 292 298 301 299 301 302 298 299 302 300 295 294 294 292 291 292 293 295 295 294 295 295 296 297 297 293 290 290 290 288 287 286 284 284 288 291 292 290 288 286 284 285 288 289 288 289 290 292 294 294 293 291 287 279 272 268 265 262 255 245 231 213 197 187 182 183 184 182 180 181 181 179 178 175 171 167 163 160 158 155 152 152 156 159 158
286 277 277 278 274 272 278 285 290 296 299 298 298 300 300 298 299 297 295 295 294 294 296 297 296 294 292 289 286 286 284 282 284 287 288 289 292 295 295 292 289 287 286 287 288 289 289 289 291 294 298 299 298 295 290 283 275 268 263 258 248 232 213 197 188 183 179 177 177 176 176 177 176 173 170 167 163 160 159 157 157 155 152 151 154 155 151
280 281 279 276 275 273 271 274 279 282 284 287 292 295 296 298 299 297 295 296 297 296 296 295 291 289 287 285 283 283 284 285 285 286 290 293 295 295 295 292 289 289 290 289 290 292 293 293 296 300 302 300 298 296 292 285 278 271 264 253 233 209 192 183 179 175 173 171 171 171 171 170 167 166 165 162 160 159 158 157 157 155 153 153 154 152 148
284 285 284 283 282 278 275 276 279 281 282 283 284 287 291 293 294 294 294 296 296 294 291 289 288 286 283 282 281 282 283 285 287 290 293 295 296 297 296 293 292 293 291 291 297 301 302 302 303 304 303 299 297 297 295 290 282 271 255 233 206 185 174 168 165 163 163 164 163 162 161 160 159 160 161 160 158 157 156 154 153 152 152 154 154 149 146
291 288 285 286 287 283 281 283 283 282 282 283 283 284 286 289 292 294 293 292 292 291 289 286 284 283 283 284 286 285 285 288 293 297 299 299 300 301 298 294 294 293 291 297 304 306 305 305 306 305 303 301 300 299 297 292 281 258 227 199 179 166 159 154 152 151 152 154 154 154 153 153 153 153 153 154 154 153 152 151 150 150 152 152 149 145 146
299 294 289 288 288 287 287 288 287 284 283 285 286 286 287 290 292 292 289 287 288 289 288 287 287 286 286 289 288 286 291 298 303 305 304 303 302 301 296 292 292 292 296 304 306 305 303 306 307 306 305 308 308 304 299 286 254 205 172 157 150 146 143 142 141 140 142 145 146 147 148 149 148 147 146 146 146 146 147 147 148 149 150 149 147 147 150
301 300 298 295 294 292 291 291 292 291 288 287 286 287 290 293 292 288 285 286 289 291 293 295 296 293 290 291 291 295 304 308 309 308 307 306 305 301 296 295 299 305 310 312 310 307 308 312 313 313 317 323 328 333 353 109 132 129 125 127 128 127 128 130 131 131 134 137 138 139 140 140 139 138 138 139 139 141 142 144 145 146 147 147 147 150 154
298 300 298 297 297 297 296 296 296 295 293 289 286 287 290 291 289 287 288 294 300 303 303 301 299 296 298 302 306 309 310 310 309 309 310 310 307 300 289 300 311 317 320 319 316 316 320 325 328 332 346 10 43 70 84 96 102 104 107 111 113 115 118 120 123 126 130 133 134 135 135 134 133 133 135 136 138 140 142 144 146 148 148 148 151 154 155
300 299 299 300 299 297 298 298 296 294 293 291 289 291 293 291 289 291 297 303 307 309 306 302 304 310 315 317 315 311 309 308 308 309 311 313 313 305 290 305 316 322 325 326 329 337 345 352 3 22 48 65 76 85 92 95 95 96 98 100 102 107 110 112 115 119 123 125 127 130 132 133 133 133 135 137 141 144 146 147 147 148 149 151 154 157 156
301 299 300 301 299 298 299 298 294 292 292 292 291 294 297 297 297 300 306 309 310 310 309 311 319 324 323 317 313 309 309 310 310 311 315 320 325 329 326 320 323 331 338 343 351 6 21 35 51 67 78 83 87 91 93 92 92 94 96 97 99 102 104 107 110 114 117 120 123 127 130 132 133 136 138 140 142 145 147 148 148 149 151 154 156 156 155
301 300 299 297 298 299 299 295 292 292 292 292 294 298 300 302 305 310 312 312 314 317 322 326 328 326 321 318 315 311 309 312 316 321 325 324 330 340 345 340 339 346 358 8 19 30 41 58 75 85 92 95 98 98 96 94 94 96 97 98 100 101 102 105 109 112 115 120 123 127 130 132 135 138 140 140 140 142 144 145 147 151 153 154 154 154 154
298 298 298 296 296 297 294 291 292 293 290 289 293 299 303 308 312 315 316 318 321 327 330 330 325 323 323 325 325 322 320 323 331 339 339 323 320 339 348 354 2 11 17 25 34 40 48 64 81 89 94 97 99 98 96 96 98 99 100 101 103 104 106 108 110 112 116 120 124 127 131 132 135 138 140 140 139 141 142 145 149 153 153 152 152 153 154
298 299 300 297 294 293 293 292 291 291 289 289 293 302 311 316 318 319 322 326 327 329 330 329 327 328 331 335 336 334 334 341 353 359 359 357 347 347 356 9 23 29 32 36 41 45 54 69 78 82 86 91 92 93 93 95 98 100 102 104 107 108 109 111 113 115 117 121 124 127 130 131 134 137 138 138 139 141 144 146 149 151 151 151 152 153 155
300 300 300 297 294 294 296 296 294 291 290 294 302 311 317 321 322 323 327 329 328 327 329 332 334 339 344 349 351 348 344 343 353 4 9 10 9 10 16 24 30 35 40 44 47 52 63 73 78 80 84 88 89 89 91 92 95 98 101 104 107 109 111 112 114 115 116 119 122 124 127 129 132 135 137 139 141 144 146 147 148 149 151 152 153 154 155
302 300 299 298 297 296 297 297 298 298 300 307 313 315 318 322 325 326 328 330 330 331 334 339 345 351 355 359 2 5 6 0 351 359 8 12 15 19 22 25 29 35 40 44 49 56 65 72 76 80 85 88 89 90 92 93 94 97 99 101 104 109 112 114 116 118 118 121 124 127 128 130 134 137 140 142 145 146 147 147 148 149 151 152 153 154 156
303 302 301 299 298 299 301 302 305 312 315 316 317 317 320 324 327 328 330 334 336 336 339 345 350 355 359 3 8 14 19 21 19 12 13 17 22 26 28 30 35 40 43 46 51 57 65 75 81 84 85 85 86 89 92 94 96 99 100 101 104 109 113 116 118 120 122 124 126 128 130 134 138 141 143 144 145 146 146 147 147 148 150 151 153 154 155
309 307 304 302 301 304 311 317 319 318 319 320 322 324 327 330 331 330 333 340 342 340 343 350 357 0 4 8 13 16 21 25 25 23 24 27 32 35 36 37 41 45 49 52 54 58 65 74 79 81 82 84 85 87 90 93 95 98 101 103 105 109 112 114 118 121 124 126 129 131 134 137 140 142 143 144 143 143 144 144 145 147 149 151 152 154 156
311 303 298 300 305 312 319 324 325 325 326 326 326 328 333 337 336 336 342 348 349 345 344 352 2 7 8 11 15 19 23 26 28 29 32 35 37 41 44 45 47 51 54 55 56 59 64 70 75 79 81 83 84 87 90 92 94 96 100 104 108 111 114 118 122 125 127 130 132 133 136 138 140 141 142 142 141 141 142 143 145 148 150 152 154 156 158
319 314 314 319 323 326 333 340 343 342 341 337 335 340 348 349 345 345 351 357 360 357 351 351 3 12 14 16 20 25 30 34 36 37 39 41 43 47 51 53 54 56 58 60 61 64 66 70 75 80 81 82 83 86 88 90 92 94 97 102 106 110 113 118 122 124 127 129 131 133 136 138 140 140 140 141 141 142 144 145 147 150 152 155 158 161 163